sat.trackr.live / text

‹ back to catalog

STARLINK-31598

NORAD 59263 · 2024-050K

PAYLOAD ACTIVE UNKNOWN

§ Identity

Operator
Country
US
Launch date
2024-03-19
Launch site
AFWTR
Launch vehicle
Mass (kg)
RCS (m²)

Purposes: comms

External: N2YO · Heavens-Above · Gunter

§ Orbital elements

Epoch: 2026-05-24T20:25:08.938560Z

Period
94.11 min
Inclination
53.1598°
Eccentricity
0.0001247
Mean motion
15.30193139 rev/d
Perigee alt
474.4 km
Apogee alt
476.1 km
Semi-major
6,853.4 km
B*
2.3492e-5
RAAN
187.6045°
Arg perigee
82.7877°
Mean anomaly
277.3265°
Rev number
12,220

§ Raw data

STARLINK-315981 59263U 24050K   26144.85079790  .00000337  00000+0  23492-4 0  99942 59263  53.1598 187.6045 0001247  82.7877 277.3265 15.30193139122206

JSON: /api/v1/satellites/59263 · /tle

For live sub-satellite position, see the globe view (requires WebGL).

§ Visibility from observer

Set your observer location to see the next 7 days of passes ≥ 10°. The values pass through the URL so the page stays shareable.

No JS? Fill the form by hand. The geolocation button needs JavaScript.